THY555 LTAJ-LTAC

Flight info

Callsign THY555
Flight time 0h 56m
Altitude 30000
Route POGEN UL605 REMPO UA17 RATSI UL605 BELSU UA17 YUCEL
Aircraft B738/M-SDE2E3FGHIRWXY/LB1

Departure

Time 2026-05-05 19:48
Airport Gaziantep Oğuzeli International Airport (LTAJ)

Arrival

Time 2026-05-05 20:44
Airport Esenboğa International Airport (LTAC)
Time Latitude Longitude Altitude Speed Heading
2026-05-05 19:27 36.94519 37.47725 2302 ft 0 kts 195°
2026-05-05 19:39 36.94532 37.47729 2298 ft 2 kts 191°
2026-05-05 19:39 36.94548 37.47732 2301 ft 2 kts 186°
2026-05-05 19:39 36.94565 37.47733 2287 ft 2 kts 176°
2026-05-05 19:40 36.94581 37.47730 2300 ft 2 kts 158°
2026-05-05 19:40 36.94595 37.47719 2299 ft 2 kts 128°
2026-05-05 19:40 36.94602 37.47703 2299 ft 1 kts 108°
2026-05-05 19:40 36.94603 37.47697 2297 ft 0 kts 105°
2026-05-05 19:43 36.94602 37.47703 2299 ft 2 kts 105°
2026-05-05 19:43 36.94595 37.47736 2300 ft 6 kts 105°
2026-05-05 19:43 36.94606 37.47789 2292 ft 7 kts 32°
2026-05-05 19:43 36.94631 37.47842 2287 ft 8 kts 84°
2026-05-05 19:44 36.94620 37.47913 2287 ft 8 kts 106°
2026-05-05 19:44 36.94604 37.47984 2287 ft 9 kts 104°
2026-05-05 19:44 36.94588 37.48059 2284 ft 9 kts 105°
2026-05-05 19:44 36.94570 37.48143 2288 ft 12 kts 105°
2026-05-05 19:45 36.94547 37.48250 2287 ft 13 kts 104°
2026-05-05 19:45 36.94524 37.48358 2285 ft 13 kts 106°
2026-05-05 19:45 36.94492 37.48508 2287 ft 22 kts 105°
2026-05-05 19:45 36.94444 37.48727 2287 ft 29 kts 105°
2026-05-05 19:46 36.94391 37.48973 2286 ft 28 kts 105°
2026-05-05 19:46 36.94341 37.49205 2288 ft 27 kts 105°
2026-05-05 19:46 36.94315 37.49372 2284 ft 15 kts 75°
2026-05-05 19:46 36.94411 37.49432 2280 ft 18 kts 16°
2026-05-05 19:47 36.94474 37.49415 2278 ft 9 kts 278°
2026-05-05 19:47 36.94483 37.49357 2278 ft 0 kts 285°
2026-05-05 19:47 36.94491 37.49319 2278 ft 26 kts 285°
2026-05-05 19:47 36.94615 37.48744 2278 ft 108 kts 285°
2026-05-05 19:48 36.94868 37.47548 2350 ft 169 kts 283°
2026-05-05 19:48 36.95188 37.46052 3098 ft 184 kts 284°
2026-05-05 19:48 36.95520 37.44503 4173 ft 184 kts 283°
2026-05-05 19:48 36.95807 37.42881 4755 ft 201 kts 285°
2026-05-05 19:49 36.96143 37.41060 4967 ft 226 kts 285°
2026-05-05 19:49 36.96380 37.39768 5284 ft 236 kts 285°
2026-05-05 19:49 36.96898 37.36906 5922 ft 261 kts 285°
2026-05-05 19:49 36.97290 37.34704 6788 ft 264 kts 285°
2026-05-05 19:50 36.97691 37.32451 7663 ft 267 kts 286°
2026-05-05 19:50 36.98108 37.30174 8460 ft 272 kts 286°
2026-05-05 19:50 36.98529 37.27885 8873 ft 270 kts 286°
2026-05-05 19:50 36.98955 37.25565 8989 ft 278 kts 286°
2026-05-05 19:51 36.99387 37.23206 8971 ft 278 kts 286°
2026-05-05 19:51 36.99815 37.20862 8979 ft 275 kts 286°
2026-05-05 19:51 37.00336 37.18625 8974 ft 270 kts 301°
2026-05-05 19:51 37.01462 37.16785 9206 ft 268 kts 316°
2026-05-05 19:52 37.02810 37.15136 9956 ft 273 kts 318°
2026-05-05 19:52 37.04217 37.13479 10508 ft 288 kts 319°
2026-05-05 19:52 37.05736 37.11685 10687 ft 313 kts 318°
2026-05-05 19:52 37.07372 37.09730 10931 ft 335 kts 318°
2026-05-05 19:53 37.09076 37.07672 11504 ft 344 kts 317°
2026-05-05 19:53 37.10809 37.05572 12252 ft 348 kts 317°
2026-05-05 19:53 37.12601 37.03511 13030 ft 351 kts 322°
2026-05-05 19:53 37.14549 37.01727 13741 ft 354 kts 326°
2026-05-05 19:54 37.16566 36.99960 14380 ft 359 kts 326°
2026-05-05 19:54 37.18584 36.98185 15056 ft 362 kts 325°
2026-05-05 19:54 37.20646 36.96354 15737 ft 365 kts 325°
2026-05-05 19:54 37.22722 36.94493 16438 ft 368 kts 324°
2026-05-05 19:55 37.24806 36.92613 17140 ft 371 kts 324°
2026-05-05 19:55 37.26907 36.90709 17792 ft 374 kts 324°
2026-05-05 19:55 37.29027 36.88784 18422 ft 378 kts 324°
2026-05-05 19:55 37.31134 36.86868 18990 ft 380 kts 324°
2026-05-05 19:56 37.33277 36.84916 19579 ft 382 kts 324°
2026-05-05 19:56 37.35439 36.82946 20101 ft 386 kts 324°
2026-05-05 19:56 37.37630 36.80949 20564 ft 391 kts 323°
2026-05-05 19:56 37.39837 36.78935 21133 ft 393 kts 323°
2026-05-05 19:57 37.42056 36.76909 21709 ft 395 kts 323°
2026-05-05 19:57 37.43534 36.75558 22072 ft 397 kts 323°
2026-05-05 19:57 37.46530 36.72820 22760 ft 400 kts 323°
2026-05-05 19:57 37.48803 36.70740 22996 ft 407 kts 323°
2026-05-05 19:58 37.51043 36.68537 23396 ft 410 kts 316°
2026-05-05 19:58 37.52963 36.65940 23853 ft 410 kts 311°
2026-05-05 19:58 37.54818 36.63217 24288 ft 410 kts 310°
2026-05-05 19:58 37.56681 36.60481 24682 ft 411 kts 311°
2026-05-05 19:59 37.58563 36.57759 25058 ft 413 kts 311°
2026-05-05 19:59 37.60466 36.55044 25455 ft 413 kts 311°
2026-05-05 19:59 37.62383 36.52333 25781 ft 415 kts 311°
2026-05-05 19:59 37.64307 36.49615 26125 ft 415 kts 311°
2026-05-05 20:00 37.66208 36.46928 26839 ft 407 kts 311°
2026-05-05 20:00 37.68065 36.44299 27218 ft 408 kts 311°
2026-05-05 20:00 37.69977 36.41590 27245 ft 416 kts 311°
2026-05-05 20:00 37.71911 36.38845 27417 ft 421 kts 311°
2026-05-05 20:01 37.73858 36.36080 27761 ft 421 kts 311°
2026-05-05 20:01 37.75804 36.33311 28119 ft 421 kts 311°
2026-05-05 20:01 37.77747 36.30547 28540 ft 419 kts 311°
2026-05-05 20:01 37.79673 36.27804 29065 ft 416 kts 311°
2026-05-05 20:02 37.81586 36.25079 29528 ft 413 kts 310°
2026-05-05 20:02 37.83492 36.22361 29904 ft 413 kts 310°
2026-05-05 20:02 37.85381 36.19667 29980 ft 417 kts 310°
2026-05-05 20:03 37.89242 36.14171 29987 ft 416 kts 310°
2026-05-05 20:03 37.93049 36.08746 30001 ft 411 kts 310°
2026-05-05 20:04 37.96849 36.03317 30017 ft 411 kts 310°
2026-05-05 20:04 38.00572 35.97988 30000 ft 411 kts 310°
2026-05-05 20:05 38.04363 35.92553 30013 ft 411 kts 310°
2026-05-05 20:05 38.08153 35.87108 30014 ft 412 kts 310°
2026-05-05 20:06 38.11955 35.81639 30026 ft 414 kts 310°
2026-05-05 20:06 38.15753 35.76166 30016 ft 417 kts 310°
2026-05-05 20:07 38.19596 35.70622 30013 ft 420 kts 310°
2026-05-05 20:07 38.23467 35.65024 30019 ft 422 kts 310°
2026-05-05 20:08 38.27355 35.59394 30022 ft 424 kts 310°
2026-05-05 20:08 38.31227 35.53775 30024 ft 425 kts 310°
2026-05-05 20:09 38.35125 35.48109 30019 ft 425 kts 311°
2026-05-05 20:09 38.39018 35.42441 30016 ft 424 kts 311°
2026-05-05 20:10 38.42882 35.36804 30029 ft 421 kts 311°
2026-05-05 20:10 38.46703 35.31220 30034 ft 420 kts 311°
2026-05-05 20:11 38.50534 35.25611 30030 ft 419 kts 311°
2026-05-05 20:11 38.54345 35.19986 30022 ft 418 kts 311°
2026-05-05 20:12 38.58086 35.14332 30034 ft 416 kts 311°
2026-05-05 20:12 38.61783 35.08721 30030 ft 415 kts 311°
2026-05-05 20:13 38.65497 35.03087 30032 ft 414 kts 311°
2026-05-05 20:13 38.69168 34.97514 30025 ft 413 kts 311°
2026-05-05 20:14 38.72869 34.91888 30030 ft 413 kts 311°
2026-05-05 20:14 38.76534 34.86308 30024 ft 411 kts 311°
2026-05-05 20:15 38.80208 34.80704 30035 ft 411 kts 311°
2026-05-05 20:15 38.83878 34.75095 30038 ft 411 kts 311°
2026-05-05 20:16 38.87549 34.69475 30034 ft 411 kts 311°
2026-05-05 20:16 38.91222 34.63842 30043 ft 409 kts 311°
2026-05-05 20:17 38.94767 34.58394 30039 ft 395 kts 311°
2026-05-05 20:17 38.98289 34.52974 30043 ft 395 kts 311°
2026-05-05 20:18 39.01814 34.47543 30014 ft 396 kts 311°
2026-05-05 20:18 39.05340 34.42095 30029 ft 397 kts 311°
2026-05-05 20:19 39.08849 34.36670 30034 ft 397 kts 311°
2026-05-05 20:19 39.12137 34.30953 30036 ft 400 kts 302°
2026-05-05 20:20 39.15235 34.25158 29717 ft 383 kts 311°
2026-05-05 20:20 39.16936 34.22563 29416 ft 375 kts 312°
2026-05-05 20:20 39.18609 34.20037 29110 ft 367 kts 312°
2026-05-05 20:20 39.20225 34.17592 28824 ft 359 kts 312°
2026-05-05 20:21 39.21823 34.15158 28544 ft 353 kts 312°
2026-05-05 20:21 39.23394 34.12753 28264 ft 348 kts 312°
2026-05-05 20:21 39.24948 34.10365 28018 ft 349 kts 312°
2026-05-05 20:21 39.26513 34.07954 27764 ft 353 kts 312°
2026-05-05 20:22 39.28079 34.05536 27442 ft 349 kts 312°
2026-05-05 20:22 39.29623 34.03148 27062 ft 345 kts 312°
2026-05-05 20:22 39.31131 34.00812 26708 ft 341 kts 312°
2026-05-05 20:22 39.32610 33.98521 26352 ft 339 kts 312°
2026-05-05 20:23 39.34113 33.96190 25978 ft 337 kts 312°
2026-05-05 20:23 39.35604 33.93876 25598 ft 334 kts 312°
2026-05-05 20:23 39.37085 33.91575 25240 ft 332 kts 312°
2026-05-05 20:23 39.38557 33.89289 24891 ft 329 kts 312°
2026-05-05 20:24 39.40019 33.87015 24537 ft 327 kts 312°
2026-05-05 20:24 39.41450 33.84788 24188 ft 326 kts 312°
2026-05-05 20:24 39.42894 33.82539 23845 ft 324 kts 312°
2026-05-05 20:24 39.44331 33.80301 23468 ft 323 kts 312°
2026-05-05 20:25 39.45763 33.78068 23070 ft 321 kts 312°
2026-05-05 20:25 39.47182 33.75814 22525 ft 324 kts 311°
2026-05-05 20:25 39.48585 33.73552 22170 ft 321 kts 311°
2026-05-05 20:25 39.49979 33.71299 21801 ft 319 kts 311°
2026-05-05 20:26 39.51367 33.69057 21363 ft 321 kts 310°
2026-05-05 20:26 39.52760 33.66812 20807 ft 326 kts 310°
2026-05-05 20:26 39.54192 33.64502 20264 ft 332 kts 310°
2026-05-05 20:26 39.55646 33.62157 19772 ft 335 kts 310°
2026-05-05 20:27 39.57242 33.59981 19235 ft 332 kts 323°
2026-05-05 20:27 39.59183 33.58417 18700 ft 327 kts 334°
2026-05-05 20:27 39.61317 33.57441 18104 ft 325 kts 346°
2026-05-05 20:27 39.63521 33.56808 17460 ft 323 kts 347°
2026-05-05 20:28 39.65715 33.56208 16868 ft 320 kts 347°
2026-05-05 20:28 39.67864 33.55611 16163 ft 322 kts 347°
2026-05-05 20:28 39.70052 33.54987 15548 ft 321 kts 347°
2026-05-05 20:28 39.72186 33.54369 15321 ft 310 kts 347°
2026-05-05 20:29 39.74289 33.53756 15071 ft 309 kts 347°
2026-05-05 20:29 39.76357 33.52992 14801 ft 309 kts 335°
2026-05-05 20:29 39.78149 33.51467 14495 ft 310 kts 318°
2026-05-05 20:29 39.79570 33.49353 14196 ft 312 kts 307°
2026-05-05 20:30 39.80849 33.47076 14050 ft 312 kts 306°
2026-05-05 20:30 39.82117 33.44777 14032 ft 313 kts 306°
2026-05-05 20:30 39.83375 33.42518 14025 ft 312 kts 307°
2026-05-05 20:30 39.84657 33.40243 14017 ft 312 kts 307°
2026-05-05 20:31 39.85954 33.37956 13743 ft 318 kts 307°
2026-05-05 20:31 39.87271 33.35639 13379 ft 319 kts 307°
2026-05-05 20:31 39.88591 33.33315 12998 ft 318 kts 307°
2026-05-05 20:31 39.89899 33.31006 12658 ft 315 kts 307°
2026-05-05 20:32 39.91192 33.28720 12338 ft 312 kts 307°
2026-05-05 20:32 39.92453 33.26489 12082 ft 307 kts 307°
2026-05-05 20:32 39.93711 33.24263 11972 ft 305 kts 307°
2026-05-05 20:32 39.94941 33.22084 12009 ft 292 kts 307°
2026-05-05 20:33 39.96118 33.19999 12005 ft 279 kts 307°
2026-05-05 20:33 39.97241 33.18012 12007 ft 266 kts 306°
2026-05-05 20:33 39.98313 33.16114 12002 ft 255 kts 306°
2026-05-05 20:33 39.99366 33.14248 11857 ft 260 kts 306°
2026-05-05 20:34 40.00445 33.12333 11570 ft 264 kts 306°
2026-05-05 20:34 40.01544 33.10426 11289 ft 263 kts 313°
2026-05-05 20:34 40.03011 33.09152 11340 ft 252 kts 342°
2026-05-05 20:34 40.04710 33.08921 11034 ft 253 kts
2026-05-05 20:35 40.06390 33.09662 10625 ft 259 kts 29°
2026-05-05 20:35 40.07893 33.11001 10241 ft 264 kts 35°
2026-05-05 20:35 40.09376 33.12460 9827 ft 268 kts 36°
2026-05-05 20:35 40.10852 33.13907 9361 ft 264 kts 36°
2026-05-05 20:36 40.12298 33.15310 9041 ft 250 kts 35°
2026-05-05 20:36 40.13630 33.16597 8962 ft 227 kts 35°
2026-05-05 20:36 40.14855 33.17776 8630 ft 219 kts 34°
2026-05-05 20:36 40.16070 33.18941 8282 ft 212 kts 35°
2026-05-05 20:37 40.17243 33.20065 7861 ft 208 kts 35°
2026-05-05 20:37 40.18018 33.20808 7530 ft 208 kts 35°
2026-05-05 20:37 40.19528 33.22256 7221 ft 195 kts 35°
2026-05-05 20:37 40.20595 33.23280 7056 ft 185 kts 35°
2026-05-05 20:38 40.21683 33.24120 6987 ft 179 kts 15°
2026-05-05 20:38 40.22899 33.24474 7016 ft 181 kts 10°
2026-05-05 20:38 40.24131 33.24444 6976 ft 182 kts 334°
2026-05-05 20:38 40.24990 33.23266 7012 ft 187 kts 293°
2026-05-05 20:39 40.25138 33.21579 7011 ft 187 kts 266°
2026-05-05 20:39 40.24994 33.19913 6966 ft 182 kts 266°
2026-05-05 20:39 40.24853 33.18262 6720 ft 181 kts 265°
2026-05-05 20:39 40.24715 33.16663 6464 ft 173 kts 265°
2026-05-05 20:40 40.24581 33.15097 6059 ft 172 kts 265°
2026-05-05 20:40 40.24435 33.13594 5723 ft 166 kts 258°
2026-05-05 20:40 40.23950 33.12224 5554 ft 170 kts 242°
2026-05-05 20:40 40.23420 33.10840 5482 ft 169 kts 244°
2026-05-05 20:41 40.22888 33.09478 5236 ft 171 kts 242°
2026-05-05 20:41 40.22161 33.08284 4933 ft 165 kts 216°
2026-05-05 20:41 40.21271 33.07394 4754 ft 158 kts 217°
2026-05-05 20:41 40.20378 33.06529 4468 ft 160 kts 217°
2026-05-05 20:42 40.19481 33.05689 4314 ft 159 kts 217°
2026-05-05 20:42 40.18601 33.04842 4173 ft 157 kts 217°
2026-05-05 20:42 40.17702 33.04005 4004 ft 163 kts 217°
2026-05-05 20:42 40.16781 33.03138 3814 ft 161 kts 218°
2026-05-05 20:43 40.15903 33.02298 3579 ft 154 kts 217°
2026-05-05 20:43 40.15044 33.01477 3363 ft 151 kts 217°
2026-05-05 20:43 40.14209 33.00683 3141 ft 146 kts 217°
2026-05-05 20:43 40.13500 33.00007 3126 ft 97 kts 216°
2026-05-05 20:44 40.13127 32.99650 3129 ft 56 kts 217°
2026-05-05 20:44 40.12894 32.99430 3133 ft 30 kts 217°
2026-05-05 20:44 40.12729 32.99272 3132 ft 29 kts 215°
2026-05-05 20:44 40.12576 32.99126 3127 ft 27 kts 216°
2026-05-05 20:45 40.12293 32.98923 3127 ft 3 kts 176°
2026-05-05 20:45 40.12267 32.98922 3130 ft 10 kts 182°
2026-05-05 20:46 40.12196 32.98917 3131 ft 10 kts 187°
2026-05-05 20:46 40.12129 32.98904 3131 ft 10 kts 188°
2026-05-05 20:46 40.12060 32.98895 3130 ft 11 kts 185°
2026-05-05 20:46 40.11966 32.98872 3130 ft 15 kts 187°
2026-05-05 20:47 40.11875 32.98918 3129 ft 14 kts 129°
2026-05-05 20:47 40.11829 32.99001 3129 ft 11 kts 126°
2026-05-05 20:47 40.11785 32.99077 3124 ft 10 kts 128°
2026-05-05 20:47 40.11730 32.99131 3127 ft 2 kts 156°
2026-05-05 20:48 40.11729 32.99131 3127 ft 1 kts 156°
2026-05-05 20:48 40.11713 32.99159 3127 ft 8 kts 99°
2026-05-05 20:48 40.11712 32.99184 3127 ft 0 kts 100°
2026-05-05 20:48 40.11698 32.99208 3126 ft 5 kts 149°
2026-05-05 20:49 40.11666 32.99226 3126 ft 4 kts 155°
2026-05-05 20:49 40.11655 32.99233 3127 ft 0 kts 155°